This demonstration page uses our WeatherBlox Daily Observations layout. Learn more.

Left ArrowRight Arrow

41.55636, -103.73856

Hourly Observations for October 20, 2018

Temp ( °F °C ) Dew Point ( °F °C ) Humidity (%) Winds ( mph kmh ) Pressure ( in mb ) Visibility ( mi km ) Precip ( " mm )
12:58 am 00:58 Clear 37 2.5 27 -2.8 68 68 NW 8 13 30.35 1028 10 16 N/A
1:58 am 01:58 Clear 36 2.2 27 -2.9 69 69 NW 7 11 30.36 1028 10 16 N/A
2:58 am 02:58 Clear 34 1.2 27 -2.9 74 74 W 9 15 30.37 1028 10 16 N/A
3:58 am 03:58 Clear 35 1.5 26 -3.2 71 71 WNW 8 13 30.37 1028 10 16 N/A
4:58 am 04:58 Clear 35 1.6 26 -3.4 70 70 W 6 9 30.37 1028 10 16 N/A
5:58 am 05:58 Clear 31 -0.8 26 -3.3 83 83 W 6 9 30.43 1030 10 16 N/A
6:58 am 06:58 Clear 32 -0.2 25 -3.8 77 77 NW 5 7 30.45 1031 10 16 N/A
7:58 am 07:58 Sunny 36 2.1 28 -2.2 73 73 NW 7 11 30.47 1032 10 16 N/A
8:58 am 08:58 Sunny 46 7.8 31 -0.4 56 56 NNE 5 7 30.42 1030 10 16 N/A
9:58 am 09:58 Sunny 53 11.6 27 -3 36 36 N N/A 30.43 1031 10 16 N/A
10:58 am 10:58 Sunny 58 14.5 27 -2.7 31 31 SSE 3 6 30.38 1029 10 16 N/A
11:58 am 11:58 Sunny 59 14.9 26 -3.1 29 29 SE 3 6 30.39 1029 10 16 N/A
12:58 pm 12:58 Sunny 61 16.1 26 -3.1 27 27 S 6 9 30.36 1028 10 16 N/A
1:58 pm 13:58 Sunny 63 17.4 26 -3.4 24 24 SSW 8 13 30.31 1026 10 16 N/A
2:58 pm 14:58 Sunny 65 18.6 24 -4.3 21 21 S 8 13 30.29 1026 10 16 N/A
3:58 pm 15:58 Sunny 65 18.5 27 -3 23 23 S 8 13 30.28 1025 10 16 N/A
4:58 pm 16:58 Sunny 64 17.9 27 -2.7 25 25 SSE 12 19 30.26 1025 10 16 N/A
5:58 pm 17:58 Sunny 57 13.7 28 -2.5 33 33 SSE 9 15 30.29 1026 10 16 N/A
6:58 pm 18:58 Clear 47 8.1 29 -1.8 50 50 SSE 9 15 30.34 1028 10 16 N/A
7:58 pm 19:58 Clear 47 8.4 28 -2.4 47 47 S 9 15 30.32 1027 10 16 N/A
8:58 pm 20:58 Clear 44 6.5 28 -2.3 54 54 SW 7 11 30.28 1025 10 16 N/A
9:58 pm 21:58 Clear 44 6.4 28 -2.3 54 54 SSW 8 13 30.26 1025 10 16 N/A
10:58 pm 22:58 Clear 44 6.6 30 -1 59 59 SW 8 13 30.22 1023 10 16 N/A
11:58 pm 23:58 Clear 43 6 30 -1.3 60 60 WSW 10 17 30.20 1023 10 16 N/A

Powered by AerisWeather